Terug naar catalogus

DELTA 1 DEB

ActiefUNKNOWN
NORAD 7055·DEBRIS·🇺🇸 United States

Gelanceerd Nov 6, 1973 vanaf Vandenberg Space Force Base

Loading…

Volgende Passages (komende 24 uur)

TLE

VersSource: Space-Track

Epoch: Sep 14, 2026, 09:51 UTC

1 07055U 73086AX  26257.41068554  .00000035  00000-0  95986-3 0  9994
2 07055 102.6633 327.9110 0344704  28.2988  31.3518 11.84226988284264

Volg DELTA 1 DEB in realtime met AllMySat

Download on the App Store